Starlink 6277

operational
NORAD ID: 56399 Int'l Des: 2023-061 Owner: SPXS Country: US Constellation: starlink
LEOCIRCULAR

About Starlink 6277

Description loading...

Live Position

Loading 3D Globe...

Upcoming Passes

Altitude History

Altitude vs Time

uPlot chart will show altitude changes over time

Two-Line Element Set

1 56399U 23061AB 25260.40292421 .00001303 00000-0 11153-3 0 9994
2 56399 43.0040 46.4195 0001500 268.7137 91.3534 15.02535276130830
Epoch: Sep 17, 2025 • Age: 22 hours

Current Status

Altitude 571.4 km
Velocity 7.58 km/s
Sub-Earth Point -43.13°S, 162.52°W
Launch Date May 4, 2023
Age 2.3 years
Type internet

Technical Details

Classification Payload
Mass 305.00 kg
Dry Mass 290.00 kg
Total Mass 305.00 kg
Length 0.20 m
Diameter 2.80 m
Span 9.00 m
Shape Box + pan
Manufacturer SPXS
Bus Type Starlink
Phase Status In Orbit
Owner/State SPXS/US

Large Constellations

Loading constellations...